W4RJF Weather Reports


Display with metric or nautical units.
time (UTC)temp
F
wind
direction
speed
MPH
gust
MPH
rain 1hr
in
rain 24hr
in
rain mn
in
humidity
%
barometer
mb
20260503203020 69 99 0.0 3.0 0.00 0.00 0.00 32 1016.6
20260503202507 67 10 1.0 3.0 0.00 0.00 0.00 32 1016.7
20260503202008 67 333 1.0 2.0 0.00 0.00 0.00 30 1016.7
20260503201522 67 108 0.0 4.0 0.00 0.00 0.00 28 1016.8
20260503201007 68 252 0.0 4.0 0.00 0.00 0.00 31 1017.0
20260503200512 67 15 1.0 4.0 0.00 0.00 0.00 31 1017.1
20260503200024 67 54 0.0 8.0 0.00 0.00 0.00 30 1017.2
20260503195508 67 5 0.0 8.0 0.00 0.00 0.00 32 1017.3
20260503195013 67 53 2.0 8.0 0.00 0.00 0.00 31 1017.4
20260503194527 66 299 1.0 8.0 0.00 0.00 0.00 30 1017.4
20260503194007 67 258 1.0 6.0 0.00 0.00 0.00 29 1017.5
20260503193512 68 67 0.0 6.0 0.00 0.00 0.00 32 1017.5
20260503193014 67 263 1.0 4.0 0.00 0.00 0.00 35 1017.5
20260503192508 66 312 1.0 3.0 0.00 0.00 0.00 31 1017.6
20260503192011 66 333 0.0 3.0 0.00 0.00 0.00 31 1017.6
20260503191527 66 100 1.0 4.0 0.00 0.00 0.00 32 1017.7
20260503191009 66 71 1.0 4.0 0.00 0.00 0.00 34 1017.8
20260503190508 66 14 2.0 5.0 0.00 0.00 0.00 35 1017.8
20260503190024 65 229 0.0 5.0 0.00 0.00 0.00 34 1017.7
20260503185508 65 352 2.0 5.0 0.00 0.00 0.00 32 1017.8
20260503185008 65 268 1.0 4.0 0.00 0.00 0.00 33 1017.9
20260503184528 64 73 1.0 5.0 0.00 0.00 0.00 35 1017.9
20260503184014 65 331 2.0 4.0 0.00 0.00 0.00 32 1017.9
20260503183507 65 184 0.0 7.0 0.00 0.00 0.00 33 1017.9
20260503183026 65 203 1.0 7.0 0.00 0.00 0.00 32 1018.0
20260503182509 65 232 0.0 9.0 0.00 0.00 0.00 33 1018.1
20260503182009 64 107 0.0 9.0 0.00 0.00 0.00 35 1018.1
20260503181518 64 253 0.0 5.0 0.00 0.00 0.00 36 1018.2
20260503181004 64 234 1.0 5.0 0.00 0.00 0.00 32 1018.3
20260503180509 64 64 1.0 3.0 0.00 0.00 0.00 36 1018.3
20260503180022 64 18 0.0 3.0 0.00 0.00 0.00 41 1018.3
20260503175508 63 282 1.0 3.0 0.00 0.00 0.00 40 1018.4
20260503175006 62 11 2.0 3.0 0.00 0.00 0.00 37 1018.5
20260503174526 61 207 0.0 3.0 0.00 0.00 0.00 40 1018.5
20260503174007 61 281 0.0 6.0 0.00 0.00 0.00 39 1018.5
20260503173029 61 344 0.0 4.0 0.00 0.00 0.00 38 1018.5
20260503172510 60 134 0.0 6.0 0.00 0.01 0.00 37 1018.5
20260503172011 61 308 1.0 6.0 0.00 0.01 0.00 41 1018.6
20260503171526 59 97 0.0 3.0 0.00 0.01 0.00 39 1018.6
20260503170506 60 294 2.0 4.0 0.00 0.01 0.00 40 1018.8
20260503110504 40 348 0.0 1.0 0.00 0.13 0.00 93 1018.2
20260503090508 40 338 0.0 0.0 0.00 0.14 0.00 93 1016.7
20260503081520 41 348 0.0 2.0 0.00 0.14 0.00 94 1016.0
20260503081010 41 348 0.0 2.0 0.00 0.14 0.00 94 1015.8
20260503072003 42 158 0.0 0.0 0.00 0.14 0.00 95 1015.4
20260503071518 42 158 0.0 0.0 0.00 0.14 0.00 95 1015.4
20260503071003 42 158 0.0 0.0 0.00 0.14 0.00 95 1015.5
20260503055008 45 158 0.0 0.0 0.00 0.14 0.00 95 1015.1
20260503054526 45 158 0.0 0.0 0.00 0.14 0.00 95 1015.0
20260503053506 46 158 0.0 0.0 0.00 0.14 0.00 95 1015.0
20260503053023 46 158 0.0 0.0 0.00 0.14 0.00 95 1014.8
20260503052509 46 158 0.0 0.0 0.00 0.14 0.00 95 1014.8
20260503051525 46 158 0.0 0.0 0.00 0.14 0.00 95 1015.0
20260503051009 46 158 0.0 0.0 0.00 0.14 0.00 95 1015.0
20260503050508 46 158 0.0 0.0 0.00 0.14 0.00 95 1015.0
20260503050022 46 158 0.0 0.0 0.00 0.14 0.00 95 1015.1
20260503045509 46 158 0.0 0.0 0.00 0.14 0.00 95 1015.1
20260503044520 46 158 0.0 0.0 0.00 0.14 0.00 95 1015.1
20260503043508 46 158 0.0 0.0 0.00 0.14 0.00 95 1014.9
20260503043024 46 158 0.0 0.0 0.00 0.14 0.00 95 1014.9
20260503042508 46 158 0.0 0.0 0.00 0.14 0.00 95 1015.0
20260503041535 46 158 0.0 0.0 0.00 0.14 0.00 95 1014.9
20260503035508 47 158 0.0 0.0 0.00 0.14 0.14 95 1014.8
20260503035010 47 158 0.0 0.0 0.00 0.14 0.14 95 1014.7
20260503034516 47 158 0.0 0.0 0.00 0.14 0.14 95 1014.6
20260503033022 48 158 0.0 0.0 0.00 0.14 0.14 95 1014.5
20260503032511 48 158 0.0 0.0 0.00 0.14 0.14 95 1014.5
20260503031521 48 158 0.0 0.0 0.00 0.14 0.14 95 1014.5
20260503030510 48 158 0.0 0.0 0.00 0.14 0.14 95 1014.3
20260503030028 48 158 0.0 0.0 0.00 0.14 0.14 95 1014.3
20260503024010 49 158 0.0 0.0 0.00 0.14 0.14 95 1014.1
20260503023510 49 158 0.0 0.0 0.00 0.14 0.14 95 1014.1
20260503023016 49 158 0.0 0.0 0.00 0.14 0.14 95 1014.0
20260503022008 49 158 0.0 0.0 0.00 0.14 0.14 95 1013.9
20260503021525 49 158 0.0 0.0 0.00 0.14 0.14 95 1014.0
20260503021009 49 158 0.0 0.0 0.00 0.14 0.14 95 1014.1
20260503020024 49 158 0.0 0.0 0.00 0.14 0.14 94 1014.1
20260503015509 49 158 0.0 0.0 0.00 0.14 0.14 94 1014.1
20260503014527 49 158 0.0 0.0 0.00 0.14 0.14 94 1014.1
20260503013032 50 158 0.0 0.0 0.00 0.14 0.14 94 1013.9
20260503012511 50 158 0.0 0.0 0.00 0.14 0.14 94 1013.9
20260503012009 50 158 0.0 0.0 0.00 0.14 0.14 94 1013.9
20260503011520 50 158 0.0 0.0 0.00 0.14 0.14 94 1013.8
20260503011010 50 158 0.0 0.0 0.00 0.14 0.14 94 1013.7
20260503010025 51 158 0.0 0.0 0.00 0.14 0.14 94 1013.6
20260503005011 51 158 0.0 0.0 0.00 0.14 0.14 93 1013.4
20260503004526 51 158 0.0 0.0 0.00 0.14 0.14 93 1013.3
20260503002503 52 158 0.0 0.0 0.00 0.14 0.14 92 1013.2
20260503002007 52 158 0.0 0.0 0.00 0.14 0.14 92 1013.2
20260503001516 52 158 0.0 0.0 0.00 0.14 0.14 92 1013.0
20260503001007 52 158 0.0 0.0 0.00 0.14 0.14 92 1012.9
20260503000505 52 157 0.0 0.0 0.00 0.14 0.14 92 1012.7
20260503000020 52 157 0.0 0.0 0.00 0.14 0.14 92 1012.6
20260502235003 52 157 0.0 0.0 0.00 0.14 0.14 90 1012.5
20260502234508 53 157 0.0 0.0 0.00 0.14 0.14 90 1012.5
20260502234001 53 157 0.0 0.0 0.00 0.14 0.14 91 1012.5
20260502233503 53 157 0.0 0.0 0.00 0.14 0.14 90 1012.4
20260502233010 53 157 0.0 0.0 0.00 0.14 0.14 90 1012.5
20260502232006 53 157 0.0 0.0 0.00 0.14 0.14 90 1012.3
20260502231511 53 157 0.0 0.0 0.00 0.14 0.14 90 1012.3
20260502231007 53 157 0.0 0.0 0.00 0.14 0.14 89 1012.2
20260502230026 53 157 0.0 0.0 0.00 0.14 0.14 88 1012.2
20260502225508 53 157 0.0 0.0 0.00 0.14 0.14 88 1012.4
20260502224525 53 157 0.0 0.0 0.00 0.14 0.14 88 1012.2
20260502224008 53 157 0.0 0.0 0.00 0.14 0.14 87 1012.2
20260502223006 53 157 0.0 0.0 0.00 0.14 0.14 86 1012.3
20260502222002 54 157 0.0 0.0 0.00 0.14 0.14 87 1012.3
20260502221527 54 157 0.0 0.0 0.00 0.14 0.14 87 1012.2
20260502220508 54 157 0.0 0.0 0.00 0.14 0.14 87 1012.1
20260502220018 54 157 0.0 0.0 0.00 0.14 0.14 87 1012.1
20260502215507 54 157 0.0 0.0 0.00 0.14 0.14 86 1012.0
20260502214521 54 157 0.0 0.0 0.00 0.14 0.14 85 1012.1
20260502213024 54 157 0.0 2.0 0.00 0.14 0.14 84 1012.0
20260502212004 55 120 0.0 1.0 0.00 0.14 0.14 86 1012.0
20260502211509 55 111 0.0 1.0 0.00 0.14 0.14 85 1012.0
20260502210014 54 149 0.0 2.0 0.00 0.14 0.14 85 1012.1
20260502205008 55 103 0.0 0.0 0.00 0.14 0.14 85 1012.1
20260502204520 54 103 0.0 2.0 0.00 0.14 0.14 86 1012.1
20260502204011 54 103 0.0 2.0 0.00 0.14 0.14 82 1012.1